Chicago Midway, IL

5:45 AM CST on November 21, 2019 (GMT -0600)
Chicago-Midway

Weather History for KMDW - October, 2019

Change the Weather History Date:

Monday, October 21, 2019

  Actual Average Record
Temperature  
Mean Temperature 60 °F 53 °F  
Max Temperature 68 °F 61 °F 87 °F (1953)
Min Temperature 52 °F 44 °F 26 °F (1952)
Degree Days  
Heating Degree Days 5 13  
Month to date heating degree days 189 202  
Since 1 July heating degree days 190 284  
Cooling Degree Days 0 0  
Month to date cooling degree days 21 13  
Year to date cooling degree days 1131 1042  
Growing Degree Days 10 (Base 50)    
Moisture  
Dew Point 50 °F    
Average Humidity 74    
Maximum Humidity 96    
Minimum Humidity 42    
Precipitation  
Precipitation 0.08 in 0.11 in 2.24 in (1933)
Month to date precipitation 1.52 2.13  
Year to date precipitation 39.34 31.99  
Sea Level Pressure  
Sea Level Pressure 29.58 in    
Wind  
Wind Speed 16 mph (SSE)    
Max Wind Speed 30 mph    
Max Gust Speed 47 mph    
Visibility 9 miles    
Events Rain    
T = Trace of Precipitation, MM = Missing Value Source: NWS Daily Summary

Daily Weather History Graph

Daily Weather History Graph

Search for Another Location

Airport or City:

Astronomy

Oct. 21, 2019 Rise Set
Actual Time 7:09 AM CDT 6:00 PM CDT
Civil Twilight 6:41 AM CDT 6:28 PM CDT
Nautical Twilight 6:09 AM CDT 7:01 PM CDT
Astronomical Twilight 5:36 AM CDT 7:33 PM CDT
Moon No Moon Rise 2:30 PM CDT
Length of Visible Light 11h 47m
Length of Day
10h 50m
Waning Gibbous, 48% of the Moon is Illuminated
Oct 21
Waning Gibbous
Oct 27
New
Nov 4
First Quarter
Nov 12
Full
Nov 19
Last Quarter

Hourly Weather History & Observations

Time (CDT) Temp. Dew Point Humidity Pressure Visibility Wind Dir Wind Speed Gust Speed Precip Events Conditions
12:53 AM 53.1 °F 52.0 °F 96% 29.84 in 2.5 mi East 10.4 mph - N/A   Overcast
1:19 AM 53.1 °F 52.0 °F 96% 29.84 in 3.0 mi ENE 8.1 mph - N/A   Overcast
1:38 AM 53.1 °F 52.0 °F 96% 29.83 in 3.0 mi East 8.1 mph - N/A   Overcast
1:53 AM 53.1 °F 52.0 °F 96% 29.83 in 5.0 mi East 8.1 mph - N/A   Overcast
2:15 AM 53.1 °F 51.1 °F 93% 29.82 in 5.0 mi East 8.1 mph - N/A   Overcast
2:53 AM 54.0 °F 52.0 °F 93% 29.82 in 6.0 mi Calm Calm - N/A   Mostly Cloudy
3:53 AM 54.0 °F 51.1 °F 90% 29.77 in 7.0 mi East 5.8 mph - N/A   Overcast
4:53 AM 55.9 °F 51.1 °F 84% 29.73 in 10.0 mi ESE 6.9 mph - N/A   Overcast
5:53 AM 59.0 °F 48.9 °F 69% 29.69 in 10.0 mi SE 13.8 mph - N/A   Overcast
6:53 AM 60.1 °F 51.1 °F 72% 29.65 in 10.0 mi SE 13.8 mph - N/A   Overcast
7:53 AM 61.0 °F 51.1 °F 70% 29.60 in 10.0 mi SE 15.0 mph 27.6 mph N/A   Overcast
8:53 AM 60.1 °F 54.0 °F 80% 29.53 in 8.0 mi SE 23.0 mph 32.2 mph 0.02 in Rain Light Rain
9:42 AM 61.0 °F 55.9 °F 83% 29.48 in 10.0 mi SSE 19.6 mph 39.1 mph 0.00 in   Overcast
9:53 AM 62.1 °F 55.9 °F 80% 29.47 in 10.0 mi SSE 21.9 mph 40.3 mph 0.00 in   Overcast
10:53 AM 63.0 °F 57.0 °F 81% 29.45 in 10.0 mi SSE 19.6 mph 39.1 mph N/A   Overcast
11:14 AM 62.1 °F 57.0 °F 84% 29.46 in 10.0 mi South 27.6 mph 44.9 mph N/A   Overcast
11:53 AM 62.1 °F 57.0 °F 84% 29.48 in 10.0 mi SSE 23.0 mph 34.5 mph N/A   Overcast
12:38 PM 62.1 °F 57.0 °F 84% 29.46 in 8.0 mi South 16.1 mph 26.5 mph 0.00 in Rain Light Rain
12:53 PM 62.1 °F 57.9 °F 86% 29.44 in 10.0 mi South 13.8 mph 27.6 mph 0.00 in Rain Light Rain
1:53 PM 63.0 °F 59.0 °F 87% 29.43 in 10.0 mi SSW 15.0 mph 24.2 mph 0.06 in Rain Light Rain
2:36 PM 64.9 °F 59.0 °F 81% 29.43 in 10.0 mi South 20.7 mph 31.1 mph 0.00 in   Mostly Cloudy
2:53 PM 66.0 °F 59.0 °F 78% 29.42 in 10.0 mi SSW 23.0 mph 38.0 mph 0.00 in   Mostly Cloudy
3:53 PM 66.9 °F 54.0 °F 63% 29.42 in 10.0 mi SSW 20.7 mph 34.5 mph N/A   Scattered Clouds
4:53 PM 66.9 °F 43.0 °F 42% 29.44 in 10.0 mi SW 21.9 mph 36.8 mph N/A   Partly Cloudy
5:53 PM 62.1 °F 42.1 °F 48% 29.48 in 10.0 mi WSW 18.4 mph 28.8 mph N/A   Scattered Clouds
6:53 PM 60.1 °F 39.9 °F 47% 29.52 in 10.0 mi SW 20.7 mph 36.8 mph N/A   Scattered Clouds
7:53 PM 55.9 °F 39.9 °F 55% 29.55 in 10.0 mi WSW 25.3 mph 39.1 mph N/A   Scattered Clouds
8:53 PM 55.0 °F 37.9 °F 53% 29.56 in 10.0 mi SW 18.4 mph 27.6 mph N/A   Mostly Cloudy
9:53 PM 54.0 °F 39.0 °F 57% 29.56 in 10.0 mi SSW 17.3 mph - N/A   Clear
10:53 PM 53.1 °F 39.0 °F 59% 29.56 in 10.0 mi SSW 15.0 mph 25.3 mph N/A   Clear
11:53 PM 53.1 °F 39.0 °F 59% 29.54 in 10.0 mi SSW 15.0 mph 26.5 mph N/A   Clear